SCP
0 0 0 0 0 0 0 0 0 0 0 0 0 0 0 0 0 0 0 0 0 0 0 0 0 0 0 0 0 0 0 0 0 0 0 0 0 0 0 0 0 0 0 0 0 0 0 0 0 0 0 0 0 0
0 0 0 0 0 0 0 0 0 0 0 0 0 0 0 0 0 0 0 0 0 0 0 0 0 0 0 0 0 0 0 0 0 0 0 0 0 0 0 0 0 0 0 0 0 0 0 0 0 0 0 0 0 0
0 0 0 0 0 0 0 0 0 0 0 0 0 0 0 0 0 0 0 0 0 0 0 0 0 0 0 0 0 0 0 0 0 0 0 0 0 0 0 0 0 0 0 0 0 0 0 0 0 0 0 0 0 0
0 0 0 0 0 0 0 0 0 0 0 0 0 0 0 0 0 0 0 0 0 0 0 0 0 0 0 0 0 0 0 0 0 0 0 0 0 0 0 0 0 0 0 0 0 0 0 0 0 0 0 0 0 0
0 0 0 0 0 0 0 -0 -0 0 0 0 0 0 0 0 0 0 0 0 0 0 0 0 0 0 0 0 0 0 0 0 0 0 0 0 0 0 0 0 0 0 0 0 0 0 0 0 0 0 0 0 0 0
0 0 0 0 0 0 0 0 -0 0 0 0 0 0 0 0 0 0 0 0 0 0 0 0 0 0 0 0 0 0 0 0 0 0 0 0 0 0 0 0 0 0 0 0 0 0 0 0 0 0 0 0 0 0
0 0 0 0 0 0 0 0 0 0 0 0 0 0 0 0 0 0 0 0 0 0 0 0 0 0 0 0 0 0 0 0 0 0 0 0 0 0 0 0 0 0 0 0 0 0 0 0 0 0 0 0 0 0
0 0 0 0 0 0 0 0 0 0 0 0 0 0 0 0 0 0 0 0 0 0 0 0 0 0 0 0 0 0 0 0 0 0 0 0 0 0 0 0 0 0 0 0 0 0 0 0 0 0 0 0 0 0
0 -0 0 0 0 0 0 0 0 0 0 0 0 0 0 0 0 0 0 0 0 0 0 0 0 0 0 0 0 0 0 0 0 0 0 0 0 0 0 0 0 0 0 0 0 0 0 0 0 0 0 0 0 0
0 0 0 0 0 0 0 0 0 0 0 0 0 0 0 0 0 0 0 0 0 0 0 0 0 0 0 0 0 0 0 0 0 0 0 0 0 0 0 0 0 0 0 0 0 0 0 0 0 0 0 0 0 0
0 0 0 0 0 0 0 0 0 0 0 0 0 0 0 0 0 0 0 0 0 0 0 0 0 0 0 0 0 0 0 0 0 0 0 0 0 0 0 0 0 0 0 0 0 0 0 0 0 0 0 0 0 0
0 0 0 -0 0 0 0 0 0 0 0 0 0 0 0 0 0 0 0 0 0 0 0 0 0 0 0 0 0 0 0 0 0 0 0 0 0 0 0 0 0 0 0 0 0 0 0 0 0 0 0 0 0 0
0 0 0 0 0 0 0 0 0 0 0 0 0 0 0 0 0 0 0 0 0 0 0 0 0 0 0 0 0 0 0 0 0 0 0 0 0 0 0 0 0 0 0 0 0 0 0 0 0 0 0 0 0 0
0 0 0 0 0 0 0 0 0 0 0 0 0 0 0 0 0 0 0 0 0 0 0 0 0 0 0 0 0 0 0 0 0 0 0 0 0 0 0 0 0 0 0 0 0 0 0 0 0 0 0 0 0 0
0 0 0 0 -0 0 0 0 0 0 0 0 0 0 0 0 0 0 0 0 0 0 0 0 0 0 0 0 0 0 0 0 0 0 0 0 0 0 0 0 0 0 0 0 0 0 0 0 0 0 0 0 0 0
0 0 0 -0 -0 0 0 0 0 0 0 0 0 0 0 0 0 0 0 0 0 0 0 0 0 0 0 0 0 0 0 0 0 0 0 0 0 0 0 0 0 0 0 0 0 0 0 0 0 0 0 0 0 0
0 0 0 -0 0 0 0 0 0 0 0 0 0 0 0 0 0 0 0 0 0 0 0 0 0 0 0 0 0 0 0 0 0 0 0 0 0 0 0 0 0 0 0 0 0 0 0 0 0 0 0 0 0 0
0 0 0 -0 0 0 0 0 0 0 0 0 -0 0 0 0 0 0 0 0 0 0 0 0 0 0 0 0 0 0 0 0 0 0 0 0 0 0 0 0 0 0 0 0 0 0 0 0 0 0 0 0 0 0
0 0 0 0 0 0 0 0 -0 -0 -0 -0 -0 0 0 0 0 0 0 0 0 0 0 0 0 0 0 0 0 0 0 0 0 0 0 0 0 0 0 0 0 0 0 0 0 0 0 0 0 0 0 0 0 0
-0 0 0 0 0 -0 -0 -0 -0 -0 0 0 0 0 0 0 0 0 0 0 0 0 0 0 0 0 0 0 0 0 0 0 0 0 0 0 0 0 0 0 0 0 0 0 0 0 0 0 0 0 0 0 0 0
0 0 0 0 0 -0 -0 0 0 0 0 -0 0 0 0 0 0 0 0 0 0 0 0 0 0 0 0 0 0 0 0 0 0 0 0 0 0 0 0 0 0 0 0 0 0 0 0 0 0 0 0 0 0 0
0 0 0 0 -0 -0 -0 0 0 0 0 0 0 0 0 0 0 0 0 0 0 0 0 0 0 0 0 0 0 0 0 0 0 0 0 0 0 0 0 0 0 0 0 0 0 0 0 0 0 0 0 0 0 0
0 -0 -0 0 0 0 0 0 0 0 0 0 0 0 0 0 0 0 0 0 0 0 0 0 0 0 0 0 0 0 0 0 0 0 0 0 0 0 0 0 0 0 0 0 0 0 0 0 0 0 0 0 0 0
0 0 -0 0 0 0 0 0 0 0 0 0 0 0 0 0 0 0 0 0 0 0 0 0 0 0 0 0 0 0 0 0 0 0 0 0 0 0 0 0 0 0 0 0 0 0 0 0 0 0 0 0 0 0
0 0 -0 0 0 -0 0 0 0 0 0 0 0 0 0 0 -0 -0 0 0 0 0 0 0 0 0 0 0 0 0 0 0 0 0 0 0 0 0 0 0 0 0 0 0 0 0 0 0 0 0 0 0 0 0
0 0 -0 0 -0 -0 -0 -0 -0 -0 0 -0 0 0 0 -0 -0 0 0 0 0 0 0 0 0 0 0 0 0 0 0 0 0 0 0 0 0 0 0 0 0 0 0 0 0 0 0 0 0 0 0 0 0 0
-0 0 0 0 0 -0 -0 0 0 -0 -0 -0 -0 -0 -0 -0 0 -0 0 0 0 0 0 0 0 0 0 0 0 0 0 0 0 0 0 0 0 0 0 0 0 0 0 0 0 0 0 0 0 0 0 0 0 0
0 0 0 0 0 0 0 0 -0 -0 -0 -0 0 -0 -0 0 -0 -0 -0 -0 -0 0 0 0 0 0 0 0 0 0 0 0 0 0 0 0 0 0 0 0 0 0 0 0 0 0 0 0 0 0 0 0 0 0
0 0 0 0 0 0 0 0 0 0 0 0 0 0 0 0 -0 -0 -0 0 0 0 -0 -0 0 0 0 0 0 0 0 0 0 0 0 0 0 0 0 0 0 0 0 0 0 0 0 0 0 0 0 0 0 0
0 0 0 0 0 0 0 0 0 0 0 0 0 0 0 0 0 0 0 0 0 0 0 0 0 0 0 0 0 0 0 0 0 0 0 0 0 0 0 0 0 0 0 0 0 0 0 0 0 0 0 0 0 0
0 0 0 0 0 0 0 0 0 0 0 0 0 0 0 0 0 0 0 0 0 0 0 0 0 0 0 0 0 0 0 0 0 0 0 0 0 0 0 0 0 0 0 0 0 0 0 0 0 0 0 0 0 0
0 0 0 0 0 0 0 0 0 0 0 0 0 0 0 0 0 0 0 0 0 0 0 0 0 0 0 0 0 0 0 0 0 0 0 0 0 0 0 0 0 0 0 0 0 0 0 0 0 0 0 0 0 0
0 0 0 0 0 0 0 0 0 0 0 0 0 0 0 0 0 0 0 0 0 0 0 0 0 0 0 0 0 0 0 0 0 0 0 0 0 0 0 0 0 0 0 0 0 0 0 0 0 0 0 0 0 0
Wind_Speed_500mb
30 28 39 41 51 47 52 58 67 75 73 81 145 145 128 122 107 123 90 96 79 22 40 47 39 55 41 42 14 43 17 7 6 5 7 7 7 13 8 9 14 15 16 8 7 5 18 29 14 15 11 17 17 14
24 28 25 38 39 40 45 45 57 58 86 69 87 142 118 115 114 129 83 94 79 28 26 40 36 55 56 54 46 66 9 33 31 8 2 7 5 3 9 8 8 6 14 14 20 14 9 47 10 22 14 10 14 12
25 26 30 34 28 35 30 29 36 49 46 81 81 94 93 133 148 143 97 111 79 25 21 27 28 41 40 43 49 34 17 29 25 13 20 6 8 8 9 10 6 7 15 7 7 8 25 31 25 23 20 18 14 17
25 29 30 33 34 31 22 19 36 36 38 53 63 77 71 136 151 134 110 118 94 32 12 9 31 38 43 50 52 34 39 34 38 24 10 6 6 16 7 7 5 7 26 13 6 5 15 27 37 28 25 17 16 23
32 26 33 35 37 37 36 30 28 34 30 37 48 58 69 113 129 109 93 108 102 54 14 18 27 18 35 47 43 32 42 50 38 12 6 5 12 10 4 5 5 22 13 12 14 36 19 17 44 39 30 21 21 26
33 32 31 37 38 41 40 38 31 27 22 20 29 46 41 104 140 109 31 71 86 58 25 7 13 19 29 44 42 31 40 32 20 11 8 9 10 7 7 8 14 53 38 43 19 30 31 16 34 35 25 23 25 24
30 34 36 38 40 42 40 39 38 28 25 23 24 31 41 90 108 71 27 48 81 57 21 10 7 17 45 46 34 33 27 18 8 11 8 10 7 16 5 8 19 44 50 40 33 35 27 38 26 27 23 24 24 21
25 29 37 41 40 42 40 41 41 38 36 35 43 35 39 84 61 43 16 61 87 42 19 9 4 11 29 12 13 16 11 11 8 9 10 8 13 2 7 17 31 49 49 42 45 44 30 35 31 25 27 26 24 22
31 28 37 43 42 44 40 44 47 45 37 45 70 73 65 39 20 34 68 81 62 16 16 9 14 9 25 13 14 10 9 4 5 4 5 10 3 12 16 37 55 67 57 53 53 46 37 33 27 29 31 29 26 23
38 37 32 39 41 44 49 48 52 52 51 55 55 15 10 15 59 68 25 12 9 9 8 6 19 7 26 10 7 12 6 6 6 3 15 3 9 38 27 33 43 54 53 51 64 52 52 43 35 35 32 27 24 23
37 39 41 38 48 44 50 52 58 60 56 35 10 10 56 72 27 8 8 9 8 5 8 12 11 13 15 8 7 2 5 3 7 5 8 3 9 13 64 59 47 54 63 53 52 42 39 30 32 36 34 29 26 26
39 44 46 43 48 47 52 59 75 60 29 15 26 51 36 6 10 10 4 2 6 10 10 11 21 19 17 12 10 7 6 2 7 17 5 7 9 22 30 58 55 61 64 56 48 36 30 28 31 32 31 29 25 25
42 46 49 49 48 51 59 64 59 55 50 52 16 8 3 3 7 10 11 3 5 10 17 28 11 16 13 11 14 5 7 4 27 4 8 10 5 22 36 52 57 61 59 52 43 35 28 31 33 31 29 28 29 27
45 46 48 50 50 54 64 69 61 51 30 10 8 7 3 2 1 3 5 6 8 22 61 43 20 11 10 7 5 9 1 4 4 6 14 5 24 34 44 52 62 63 53 43 34 28 29 32 30 30 27 28 28 26
47 49 49 51 55 67 87 74 56 36 10 12 9 5 6 3 4 4 6 6 11 63 63 30 18 13 4 9 4 9 4 9 12 10 6 7 26 49 53 52 47 45 38 28 24 26 30 30 28 26 24 26 26 27
52 53 51 62 58 51 56 56 40 13 13 12 16 7 5 3 7 7 10 28 37 55 36 14 8 7 5 9 8 12 17 13 7 4 6 16 35 47 52 48 39 25 19 22 25 27 28 29 27 26 26 25 28 35
59 48 60 64 56 61 51 38 14 18 13 10 7 14 8 8 6 5 11 19 39 6 3 6 9 5 7 5 3 4 6 3 9 8 15 25 38 44 41 36 23 20 21 22 23 25 26 29 27 25 25 24 35 38
56 52 56 68 68 51 33 21 15 15 15 16 7 8 11 12 10 12 14 12 7 5 4 5 15 6 6 9 4 3 7 16 22 26 32 33 31 29 24 19 19 19 19 20 22 24 25 25 25 23 29 32 37 34
55 58 53 52 37 19 11 14 14 12 11 8 13 15 17 19 28 25 29 26 29 22 14 11 12 6 5 6 6 10 11 8 13 16 17 14 15 14 15 16 15 16 17 18 20 21 23 24 25 28 33 39 40 33
58 52 57 45 27 14 13 13 12 15 8 8 10 11 11 13 22 34 31 26 23 14 20 10 6 7 5 6 7 10 13 13 12 11 10 9 10 11 13 13 13 14 15 18 21 22 24 27 26 33 37 37 40 36
42 46 43 40 25 20 15 9 13 12 15 10 8 7 9 14 16 18 25 23 25 16 9 13 13 8 6 6 8 9 10 8 6 6 9 7 6 7 9 15 19 22 23 23 23 24 29 30 29 37 39 38 41 40
26 26 28 23 13 13 16 15 18 20 10 12 7 8 12 9 12 17 15 32 15 14 11 15 14 8 6 6 5 4 3 1 1 1 4 7 9 10 14 19 23 25 26 25 29 32 31 32 38 40 42 42 43 44
19 12 10 8 10 11 10 8 5 6 7 2 6 8 9 9 9 11 16 14 11 21 22 20 16 9 7 7 4 1 3 6 8 11 15 18 20 22 23 25 29 31 31 25 32 38 38 36 39 42 42 44 46 44
11 8 11 11 17 5 10 7 8 8 8 8 7 6 7 8 6 14 7 8 9 19 19 17 14 3 1 3 5 11 12 15 17 18 24 27 26 23 28 29 31 34 36 35 32 32 35 37 41 44 44 45 43 43
8 24 15 14 20 11 12 10 11 9 6 5 7 7 6 8 6 8 5 9 13 20 21 15 13 10 8 7 11 14 21 25 24 20 15 21 23 24 25 27 28 32 33 34 36 36 34 36 37 39 40 39 42 45
16 24 14 7 12 8 1 7 6 4 5 7 3 4 5 6 10 4 3 16 14 23 26 23 18 10 8 19 26 25 27 31 31 28 19 21 28 33 29 23 16 15 20 23 26 29 31 33 38 41 45 45 48 51
12 9 15 20 5 8 12 15 11 11 10 6 5 6 6 10 6 3 1 17 16 21 22 20 19 21 26 29 28 29 31 34 36 33 29 27 26 24 23 23 21 24 30 32 35 38 42 41 41 42 45 46 46 47
14 19 10 21 19 22 8 7 9 7 4 8 2 11 8 5 4 6 7 13 21 20 20 22 24 27 32 33 35 35 31 30 28 27 21 18 15 20 25 26 32 35 38 37 38 39 40 43 45 47 49 53 53 50
15 14 8 14 13 19 20 7 4 9 12 6 6 4 7 10 24 24 31 30 28 28 26 25 27 30 30 25 23 24 29 30 26 21 20 21 17 17 29 31 33 34 36 38 35 39 44 49 52 54 57 60 61 63
16 21 10 12 10 10 15 17 16 23 29 26 23 38 37 30 21 15 22 38 36 38 39 41 41 42 41 39 31 21 23 21 26 33 40 40 40 36 35 35 36 37 39 43 46 46 45 48 50 52 56 59 60 63
10 10 13 16 12 11 22 29 37 41 41 37 39 34 21 16 18 34 35 39 45 47 49 53 50 47 47 42 42 45 33 24 32 37 41 46 46 45 44 43 44 46 48 50 52 54 55 58 60 63 66 67 66 66
15 15 11 8 6 11 7 8 11 11 10 10 12 10 8 7 6 20 38 43 54 54 54 60 59 51 41 36 40 37 40 46 45 43 41 41 41 41 44 47 48 50 53 55 57 60 61 63 65 65 68 68 66 64
11 24 22 13 8 4 5 6 7 8 11 9 14 17 12 8 7 28 37 47 58 54 58 63 57 50 42 46 43 41 43 40 38 36 37 40 45 48 50 51 54 55 58 60 60 60 61 62 64 63 61 59 57 56
Wind_Direction_500mb
207 192 165 194 181 176 178 194 214 206 203 194 191 192 204 215 208 198 196 194 183 174 164 176 173 170 163 157 151 155 111 215 81 133 135 194 132 205 113 154 175 160 147 178 94 107 269 161 121 168 173 149 195 222
212 203 165 173 171 183 194 165 178 185 211 196 189 196 204 215 208 194 191 188 188 177 169 186 183 186 183 176 141 167 160 147 167 123 128 109 108 123 153 205 149 193 179 176 184 205 155 176 200 199 201 210 227 252
208 201 193 161 167 173 170 169 166 170 167 196 194 193 200 200 193 193 193 184 180 140 123 163 171 184 185 184 183 160 173 174 177 141 148 147 156 138 161 229 126 256 168 154 113 206 186 191 206 214 231 240 254 286
202 199 188 180 170 174 173 174 182 184 193 194 188 199 224 203 189 190 194 194 181 151 121 159 172 173 182 184 187 185 185 164 161 149 107 136 140 200 188 146 156 181 151 157 264 126 145 206 214 217 224 235 271 287
195 196 194 180 174 171 167 172 172 201 184 189 201 197 190 192 188 186 188 179 181 175 126 131 151 153 175 183 184 177 183 173 156 128 100 159 142 131 62 84 232 193 166 173 211 191 180 193 208 211 216 244 267 286
192 190 189 178 176 171 167 171 160 156 159 171 176 187 167 186 182 173 135 174 181 179 110 126 115 140 159 164 159 154 162 160 158 118 132 120 156 156 146 196 241 201 196 203 179 178 195 183 184 201 227 255 280 283
192 181 185 183 182 173 170 164 154 148 129 140 163 183 182 182 168 174 165 182 178 177 104 106 88 142 146 145 137 153 165 156 131 112 86 129 155 176 125 203 219 205 207 204 202 180 161 189 205 210 232 263 267 267
184 191 170 176 176 171 167 160 157 152 143 125 140 149 157 159 165 169 136 171 173 155 107 113 110 135 150 114 108 128 121 125 95 116 135 136 133 89 254 214 188 191 192 189 188 196 209 203 200 220 246 249 248 251
179 177 178 167 172 167 166 161 159 154 146 126 143 142 146 161 152 137 153 163 166 135 116 123 144 160 163 106 106 102 126 97 134 111 139 154 186 220 220 198 194 191 190 189 186 196 197 202 214 236 237 233 234 241
176 172 176 169 168 167 162 163 157 147 147 141 144 102 90 117 136 139 133 134 88 77 97 94 124 128 154 128 106 117 127 145 148 151 141 184 253 238 224 222 218 201 194 195 183 190 199 208 225 236 238 232 229 234
172 172 171 171 164 163 159 156 154 152 145 132 105 75 130 136 121 92 103 100 134 80 95 111 118 122 145 111 127 140 148 175 147 173 167 250 271 227 220 216 202 198 197 196 203 215 210 222 234 228 221 223 226 231
169 168 168 166 163 161 158 156 153 150 151 148 136 135 136 108 72 83 66 56 70 165 146 112 124 114 117 135 115 141 101 204 160 135 134 250 244 229 212 198 193 188 191 193 195 205 218 232 222 214 218 223 230 236
165 164 163 162 162 160 159 163 160 149 123 114 103 95 95 30 93 131 170 264 107 173 147 144 119 121 114 93 84 112 134 156 132 115 229 234 210 193 180 184 180 180 188 192 200 213 225 221 213 210 213 223 234 241
160 161 160 160 157 158 165 166 147 141 132 84 96 65 101 120 294 159 170 166 114 149 145 137 108 119 125 92 129 101 43 153 130 204 231 249 212 179 174 178 177 176 183 191 205 221 220 215 211 212 215 227 240 247
154 155 154 152 154 149 149 155 148 157 77 71 37 87 55 339 348 355 46 95 117 145 140 110 83 96 73 107 76 123 114 212 216 227 233 308 185 169 168 170 172 178 186 203 218 219 216 214 220 223 227 239 253 260
146 141 149 151 156 156 152 151 152 139 66 61 53 53 34 80 10 32 94 119 138 145 146 101 109 103 114 121 136 198 155 215 244 225 283 173 157 166 166 168 170 186 212 216 216 213 216 222 225 228 239 255 265 270
136 128 153 166 156 149 136 141 80 57 65 60 41 35 30 77 84 51 113 132 152 148 125 120 109 137 115 105 201 225 202 255 330 76 121 144 151 155 161 169 194 221 218 217 217 219 223 230 237 241 247 258 267 276
123 116 139 144 138 134 108 66 75 66 66 41 72 36 57 53 83 82 77 113 128 86 49 106 122 104 128 140 270 292 51 78 94 98 107 119 139 160 186 208 214 213 215 217 220 226 232 241 248 257 264 269 271 277
147 145 146 137 131 102 78 54 50 87 68 85 69 65 72 74 78 89 92 92 87 82 91 52 55 44 55 27 20 64 83 106 119 116 123 146 171 188 196 198 200 208 218 228 235 238 244 252 261 266 272 275 280 280
98 135 163 156 121 64 74 60 63 81 74 73 57 53 64 77 79 67 77 74 76 50 47 42 45 23 7 25 68 78 75 92 114 137 147 162 179 187 193 202 213 224 238 250 252 257 262 265 271 272 274 279 284 285
90 101 121 135 97 68 84 79 68 85 106 87 106 69 79 78 55 46 39 41 62 40 62 49 22 7 22 76 86 85 83 87 127 155 152 157 177 206 226 239 247 254 262 264 266 268 273 274 267 266 273 277 280 283
106 100 101 88 78 75 68 51 107 115 103 115 85 55 55 47 37 29 41 51 60 37 30 8 12 28 92 98 100 98 109 99 42 289 264 256 258 262 261 267 269 270 275 278 276 274 266 264 267 269 271 274 279 284
138 126 92 84 101 78 100 115 92 78 94 88 94 60 33 48 53 43 71 60 78 16 15 20 26 62 94 97 84 9 298 288 289 284 280 278 277 279 277 274 277 280 279 274 271 273 275 273 273 272 275 281 283 283
141 73 44 55 46 103 122 61 70 77 77 40 56 44 13 23 52 62 76 66 32 14 19 25 33 85 37 345 332 316 307 300 295 291 291 288 288 286 283 283 282 285 285 284 281 279 279 278 277 282 285 285 286 290
101 12 24 14 30 48 42 20 8 48 65 359 75 22 355 9 68 53 62 16 15 4 9 18 19 29 22 359 345 329 323 325 324 323 311 296 301 300 296 294 293 288 286 288 287 287 287 286 285 284 284 287 290 290
67 14 37 351 7 68 337 76 44 108 107 64 48 340 26 74 62 44 315 355 2 359 357 357 352 342 337 338 337 336 331 324 324 329 326 313 314 314 315 319 316 300 298 293 290 288 286 285 287 289 290 291 292 294
60 348 35 29 37 74 73 65 71 71 60 53 326 18 61 67 60 267 66 9 15 9 7 12 10 356 342 339 335 331 326 322 322 321 319 312 307 304 307 312 313 307 304 302 299 299 299 300 300 299 299 298 299 300
64 31 62 5 53 39 94 59 40 40 326 1 356 37 92 106 167 108 65 44 36 30 18 358 350 344 338 335 331 328 323 319 320 319 321 316 312 302 302 302 304 305 305 305 304 302 301 301 302 302 302 301 303 305
44 16 37 39 53 47 41 53 33 19 352 16 98 91 108 82 126 89 53 40 28 21 15 8 358 349 343 344 340 330 324 327 333 334 331 325 319 311 305 304 303 302 300 299 299 300 301 301 301 302 303 305 306 306
25 18 80 57 55 33 20 49 68 71 70 76 89 102 97 101 99 80 45 26 24 21 14 7 358 351 350 349 352 3 344 336 340 336 330 326 321 319 315 311 308 306 303 301 301 301 298 296 295 294 295 296 296 298
23 37 72 56 79 96 95 85 79 77 82 84 102 100 114 124 78 45 31 19 15 12 6 3 5 3 356 354 349 343 348 336 328 324 318 315 315 317 316 314 312 309 308 307 307 307 308 307 307 306 305 305 307 308
26 45 104 97 115 147 96 65 67 68 59 63 55 68 83 91 75 21 10 9 8 4 4 0 358 357 354 350 342 331 324 323 322 321 318 313 312 312 310 310 310 309 308 308 309 309 309 308 308 309 309 310 310 309
56 57 73 90 98 106 96 90 74 87 54 52 44 41 48 62 82 11 6 6 5 357 355 355 355 354 352 349 342 335 328 326 326 324 319 315 314 315 314 313 311 308 307 306 307 308 307 307 306 306 305 306 307 309
Wind_Speed_850mb
30 28 39 41 51 47 52 58 67 75 73 81 145 145 128 122 107 123 90 96 79 22 40 47 39 55 41 42 14 43 17 7 6 5 7 7 7 13 8 9 14 15 16 8 7 5 18 29 14 15 11 17 17 14
24 28 25 38 39 40 45 45 57 58 86 69 87 142 118 115 114 129 83 94 79 28 26 40 36 55 56 54 46 66 9 33 31 8 2 7 5 3 9 8 8 6 14 14 20 14 9 47 10 22 14 10 14 12
25 26 30 34 28 35 30 29 36 49 46 81 81 94 93 133 148 143 97 111 79 25 21 27 28 41 40 43 49 34 17 29 25 13 20 6 8 8 9 10 6 7 15 7 7 8 25 31 25 23 20 18 14 17
25 29 30 33 34 31 22 19 36 36 38 53 63 77 71 136 151 134 110 118 94 32 12 9 31 38 43 50 52 34 39 34 38 24 10 6 6 16 7 7 5 7 26 13 6 5 15 27 37 28 25 17 16 23
32 26 33 35 37 37 36 30 28 34 30 37 48 58 69 113 129 109 93 108 102 54 14 18 27 18 35 47 43 32 42 50 38 12 6 5 12 10 4 5 5 22 13 12 14 36 19 17 44 39 30 21 21 26
33 32 31 37 38 41 40 38 31 27 22 20 29 46 41 104 140 109 31 71 86 58 25 7 13 19 29 44 42 31 40 32 20 11 8 9 10 7 7 8 14 53 38 43 19 30 31 16 34 35 25 23 25 24
30 34 36 38 40 42 40 39 38 28 25 23 24 31 41 90 108 71 27 48 81 57 21 10 7 17 45 46 34 33 27 18 8 11 8 10 7 16 5 8 19 44 50 40 33 35 27 38 26 27 23 24 24 21
25 29 37 41 40 42 40 41 41 38 36 35 43 35 39 84 61 43 16 61 87 42 19 9 4 11 29 12 13 16 11 11 8 9 10 8 13 2 7 17 31 49 49 42 45 44 30 35 31 25 27 26 24 22
31 28 37 43 42 44 40 44 47 45 37 45 70 73 65 39 20 34 68 81 62 16 16 9 14 9 25 13 14 10 9 4 5 4 5 10 3 12 16 37 55 67 57 53 53 46 37 33 27 29 31 29 26 23
38 37 32 39 41 44 49 48 52 52 51 55 55 15 10 15 59 68 25 12 9 9 8 6 19 7 26 10 7 12 6 6 6 3 15 3 9 38 27 33 43 54 53 51 64 52 52 43 35 35 32 27 24 23
37 39 41 38 48 44 50 52 58 60 56 35 10 10 56 72 27 8 8 9 8 5 8 12 11 13 15 8 7 2 5 3 7 5 8 3 9 13 64 59 47 54 63 53 52 42 39 30 32 36 34 29 26 26
39 44 46 43 48 47 52 59 75 60 29 15 26 51 36 6 10 10 4 2 6 10 10 11 21 19 17 12 10 7 6 2 7 17 5 7 9 22 30 58 55 61 64 56 48 36 30 28 31 32 31 29 25 25
42 46 49 49 48 51 59 64 59 55 50 52 16 8 3 3 7 10 11 3 5 10 17 28 11 16 13 11 14 5 7 4 27 4 8 10 5 22 36 52 57 61 59 52 43 35 28 31 33 31 29 28 29 27
45 46 48 50 50 54 64 69 61 51 30 10 8 7 3 2 1 3 5 6 8 22 61 43 20 11 10 7 5 9 1 4 4 6 14 5 24 34 44 52 62 63 53 43 34 28 29 32 30 30 27 28 28 26
47 49 49 51 55 67 87 74 56 36 10 12 9 5 6 3 4 4 6 6 11 63 63 30 18 13 4 9 4 9 4 9 12 10 6 7 26 49 53 52 47 45 38 28 24 26 30 30 28 26 24 26 26 27
52 53 51 62 58 51 56 56 40 13 13 12 16 7 5 3 7 7 10 28 37 55 36 14 8 7 5 9 8 12 17 13 7 4 6 16 35 47 52 48 39 25 19 22 25 27 28 29 27 26 26 25 28 35
59 48 60 64 56 61 51 38 14 18 13 10 7 14 8 8 6 5 11 19 39 6 3 6 9 5 7 5 3 4 6 3 9 8 15 25 38 44 41 36 23 20 21 22 23 25 26 29 27 25 25 24 35 38
56 52 56 68 68 51 33 21 15 15 15 16 7 8 11 12 10 12 14 12 7 5 4 5 15 6 6 9 4 3 7 16 22 26 32 33 31 29 24 19 19 19 19 20 22 24 25 25 25 23 29 32 37 34
55 58 53 52 37 19 11 14 14 12 11 8 13 15 17 19 28 25 29 26 29 22 14 11 12 6 5 6 6 10 11 8 13 16 17 14 15 14 15 16 15 16 17 18 20 21 23 24 25 28 33 39 40 33
58 52 57 45 27 14 13 13 12 15 8 8 10 11 11 13 22 34 31 26 23 14 20 10 6 7 5 6 7 10 13 13 12 11 10 9 10 11 13 13 13 14 15 18 21 22 24 27 26 33 37 37 40 36
42 46 43 40 25 20 15 9 13 12 15 10 8 7 9 14 16 18 25 23 25 16 9 13 13 8 6 6 8 9 10 8 6 6 9 7 6 7 9 15 19 22 23 23 23 24 29 30 29 37 39 38 41 40
26 26 28 23 13 13 16 15 18 20 10 12 7 8 12 9 12 17 15 32 15 14 11 15 14 8 6 6 5 4 3 1 1 1 4 7 9 10 14 19 23 25 26 25 29 32 31 32 38 40 42 42 43 44
19 12 10 8 10 11 10 8 5 6 7 2 6 8 9 9 9 11 16 14 11 21 22 20 16 9 7 7 4 1 3 6 8 11 15 18 20 22 23 25 29 31 31 25 32 38 38 36 39 42 42 44 46 44
11 8 11 11 17 5 10 7 8 8 8 8 7 6 7 8 6 14 7 8 9 19 19 17 14 3 1 3 5 11 12 15 17 18 24 27 26 23 28 29 31 34 36 35 32 32 35 37 41 44 44 45 43 43
8 24 15 14 20 11 12 10 11 9 6 5 7 7 6 8 6 8 5 9 13 20 21 15 13 10 8 7 11 14 21 25 24 20 15 21 23 24 25 27 28 32 33 34 36 36 34 36 37 39 40 39 42 45
16 24 14 7 12 8 1 7 6 4 5 7 3 4 5 6 10 4 3 16 14 23 26 23 18 10 8 19 26 25 27 31 31 28 19 21 28 33 29 23 16 15 20 23 26 29 31 33 38 41 45 45 48 51
12 9 15 20 5 8 12 15 11 11 10 6 5 6 6 10 6 3 1 17 16 21 22 20 19 21 26 29 28 29 31 34 36 33 29 27 26 24 23 23 21 24 30 32 35 38 42 41 41 42 45 46 46 47
14 19 10 21 19 22 8 7 9 7 4 8 2 11 8 5 4 6 7 13 21 20 20 22 24 27 32 33 35 35 31 30 28 27 21 18 15 20 25 26 32 35 38 37 38 39 40 43 45 47 49 53 53 50
15 14 8 14 13 19 20 7 4 9 12 6 6 4 7 10 24 24 31 30 28 28 26 25 27 30 30 25 23 24 29 30 26 21 20 21 17 17 29 31 33 34 36 38 35 39 44 49 52 54 57 60 61 63
16 21 10 12 10 10 15 17 16 23 29 26 23 38 37 30 21 15 22 38 36 38 39 41 41 42 41 39 31 21 23 21 26 33 40 40 40 36 35 35 36 37 39 43 46 46 45 48 50 52 56 59 60 63
10 10 13 16 12 11 22 29 37 41 41 37 39 34 21 16 18 34 35 39 45 47 49 53 50 47 47 42 42 45 33 24 32 37 41 46 46 45 44 43 44 46 48 50 52 54 55 58 60 63 66 67 66 66
15 15 11 8 6 11 7 8 11 11 10 10 12 10 8 7 6 20 38 43 54 54 54 60 59 51 41 36 40 37 40 46 45 43 41 41 41 41 44 47 48 50 53 55 57 60 61 63 65 65 68 68 66 64
11 24 22 13 8 4 5 6 7 8 11 9 14 17 12 8 7 28 37 47 58 54 58 63 57 50 42 46 43 41 43 40 38 36 37 40 45 48 50 51 54 55 58 60 60 60 61 62 64 63 61 59 57 56
Wind_Direction_850mb
207 192 165 194 181 176 178 194 214 206 203 194 191 192 204 215 208 198 196 194 183 174 164 176 173 170 163 157 151 155 111 215 81 133 135 194 132 205 113 154 175 160 147 178 94 107 269 161 121 168 173 149 195 222
212 203 165 173 171 183 194 165 178 185 211 196 189 196 204 215 208 194 191 188 188 177 169 186 183 186 183 176 141 167 160 147 167 123 128 109 108 123 153 205 149 193 179 176 184 205 155 176 200 199 201 210 227 252
208 201 193 161 167 173 170 169 166 170 167 196 194 193 200 200 193 193 193 184 180 140 123 163 171 184 185 184 183 160 173 174 177 141 148 147 156 138 161 229 126 256 168 154 113 206 186 191 206 214 231 240 254 286
202 199 188 180 170 174 173 174 182 184 193 194 188 199 224 203 189 190 194 194 181 151 121 159 172 173 182 184 187 185 185 164 161 149 107 136 140 200 188 146 156 181 151 157 264 126 145 206 214 217 224 235 271 287
195 196 194 180 174 171 167 172 172 201 184 189 201 197 190 192 188 186 188 179 181 175 126 131 151 153 175 183 184 177 183 173 156 128 100 159 142 131 62 84 232 193 166 173 211 191 180 193 208 211 216 244 267 286
192 190 189 178 176 171 167 171 160 156 159 171 176 187 167 186 182 173 135 174 181 179 110 126 115 140 159 164 159 154 162 160 158 118 132 120 156 156 146 196 241 201 196 203 179 178 195 183 184 201 227 255 280 283
192 181 185 183 182 173 170 164 154 148 129 140 163 183 182 182 168 174 165 182 178 177 104 106 88 142 146 145 137 153 165 156 131 112 86 129 155 176 125 203 219 205 207 204 202 180 161 189 205 210 232 263 267 267
184 191 170 176 176 171 167 160 157 152 143 125 140 149 157 159 165 169 136 171 173 155 107 113 110 135 150 114 108 128 121 125 95 116 135 136 133 89 254 214 188 191 192 189 188 196 209 203 200 220 246 249 248 251
179 177 178 167 172 167 166 161 159 154 146 126 143 142 146 161 152 137 153 163 166 135 116 123 144 160 163 106 106 102 126 97 134 111 139 154 186 220 220 198 194 191 190 189 186 196 197 202 214 236 237 233 234 241
176 172 176 169 168 167 162 163 157 147 147 141 144 102 90 117 136 139 133 134 88 77 97 94 124 128 154 128 106 117 127 145 148 151 141 184 253 238 224 222 218 201 194 195 183 190 199 208 225 236 238 232 229 234
172 172 171 171 164 163 159 156 154 152 145 132 105 75 130 136 121 92 103 100 134 80 95 111 118 122 145 111 127 140 148 175 147 173 167 250 271 227 220 216 202 198 197 196 203 215 210 222 234 228 221 223 226 231
169 168 168 166 163 161 158 156 153 150 151 148 136 135 136 108 72 83 66 56 70 165 146 112 124 114 117 135 115 141 101 204 160 135 134 250 244 229 212 198 193 188 191 193 195 205 218 232 222 214 218 223 230 236
165 164 163 162 162 160 159 163 160 149 123 114 103 95 95 30 93 131 170 264 107 173 147 144 119 121 114 93 84 112 134 156 132 115 229 234 210 193 180 184 180 180 188 192 200 213 225 221 213 210 213 223 234 241
160 161 160 160 157 158 165 166 147 141 132 84 96 65 101 120 294 159 170 166 114 149 145 137 108 119 125 92 129 101 43 153 130 204 231 249 212 179 174 178 177 176 183 191 205 221 220 215 211 212 215 227 240 247
154 155 154 152 154 149 149 155 148 157 77 71 37 87 55 339 348 355 46 95 117 145 140 110 83 96 73 107 76 123 114 212 216 227 233 308 185 169 168 170 172 178 186 203 218 219 216 214 220 223 227 239 253 260
146 141 149 151 156 156 152 151 152 139 66 61 53 53 34 80 10 32 94 119 138 145 146 101 109 103 114 121 136 198 155 215 244 225 283 173 157 166 166 168 170 186 212 216 216 213 216 222 225 228 239 255 265 270
136 128 153 166 156 149 136 141 80 57 65 60 41 35 30 77 84 51 113 132 152 148 125 120 109 137 115 105 201 225 202 255 330 76 121 144 151 155 161 169 194 221 218 217 217 219 223 230 237 241 247 258 267 276
123 116 139 144 138 134 108 66 75 66 66 41 72 36 57 53 83 82 77 113 128 86 49 106 122 104 128 140 270 292 51 78 94 98 107 119 139 160 186 208 214 213 215 217 220 226 232 241 248 257 264 269 271 277
147 145 146 137 131 102 78 54 50 87 68 85 69 65 72 74 78 89 92 92 87 82 91 52 55 44 55 27 20 64 83 106 119 116 123 146 171 188 196 198 200 208 218 228 235 238 244 252 261 266 272 275 280 280
98 135 163 156 121 64 74 60 63 81 74 73 57 53 64 77 79 67 77 74 76 50 47 42 45 23 7 25 68 78 75 92 114 137 147 162 179 187 193 202 213 224 238 250 252 257 262 265 271 272 274 279 284 285
90 101 121 135 97 68 84 79 68 85 106 87 106 69 79 78 55 46 39 41 62 40 62 49 22 7 22 76 86 85 83 87 127 155 152 157 177 206 226 239 247 254 262 264 266 268 273 274 267 266 273 277 280 283
106 100 101 88 78 75 68 51 107 115 103 115 85 55 55 47 37 29 41 51 60 37 30 8 12 28 92 98 100 98 109 99 42 289 264 256 258 262 261 267 269 270 275 278 276 274 266 264 267 269 271 274 279 284
138 126 92 84 101 78 100 115 92 78 94 88 94 60 33 48 53 43 71 60 78 16 15 20 26 62 94 97 84 9 298 288 289 284 280 278 277 279 277 274 277 280 279 274 271 273 275 273 273 272 275 281 283 283
141 73 44 55 46 103 122 61 70 77 77 40 56 44 13 23 52 62 76 66 32 14 19 25 33 85 37 345 332 316 307 300 295 291 291 288 288 286 283 283 282 285 285 284 281 279 279 278 277 282 285 285 286 290
101 12 24 14 30 48 42 20 8 48 65 359 75 22 355 9 68 53 62 16 15 4 9 18 19 29 22 359 345 329 323 325 324 323 311 296 301 300 296 294 293 288 286 288 287 287 287 286 285 284 284 287 290 290
67 14 37 351 7 68 337 76 44 108 107 64 48 340 26 74 62 44 315 355 2 359 357 357 352 342 337 338 337 336 331 324 324 329 326 313 314 314 315 319 316 300 298 293 290 288 286 285 287 289 290 291 292 294
60 348 35 29 37 74 73 65 71 71 60 53 326 18 61 67 60 267 66 9 15 9 7 12 10 356 342 339 335 331 326 322 322 321 319 312 307 304 307 312 313 307 304 302 299 299 299 300 300 299 299 298 299 300
64 31 62 5 53 39 94 59 40 40 326 1 356 37 92 106 167 108 65 44 36 30 18 358 350 344 338 335 331 328 323 319 320 319 321 316 312 302 302 302 304 305 305 305 304 302 301 301 302 302 302 301 303 305
44 16 37 39 53 47 41 53 33 19 352 16 98 91 108 82 126 89 53 40 28 21 15 8 358 349 343 344 340 330 324 327 333 334 331 325 319 311 305 304 303 302 300 299 299 300 301 301 301 302 303 305 306 306
25 18 80 57 55 33 20 49 68 71 70 76 89 102 97 101 99 80 45 26 24 21 14 7 358 351 350 349 352 3 344 336 340 336 330 326 321 319 315 311 308 306 303 301 301 301 298 296 295 294 295 296 296 298
23 37 72 56 79 96 95 85 79 77 82 84 102 100 114 124 78 45 31 19 15 12 6 3 5 3 356 354 349 343 348 336 328 324 318 315 315 317 316 314 312 309 308 307 307 307 308 307 307 306 305 305 307 308
26 45 104 97 115 147 96 65 67 68 59 63 55 68 83 91 75 21 10 9 8 4 4 0 358 357 354 350 342 331 324 323 322 321 318 313 312 312 310 310 310 309 308 308 309 309 309 308 308 309 309 310 310 309
56 57 73 90 98 106 96 90 74 87 54 52 44 41 48 62 82 11 6 6 5 357 355 355 355 354 352 349 342 335 328 326 326 324 319 315 314 315 314 313 311 308 307 306 307 308 307 307 306 306 305 306 307 309